User: anonymous   Login
Location: Elstree
(51.6403°N, 0.2969°W)
Time: 13:33:10
(UTC+00:00)
Language:

FENGYUN 1C DEB - Orbit

View from above orbital plane
View from above orbital plane
View from above satellite
View from above satellite

Ground track
Ground track

The orbit data is extracted from the following two-line orbital elements,

1 31179U 99025BJH 21266.86668079  .00000434  00000-0  33732-3 0  9995
2 31179  99.1735 303.0356 0228125 209.2329 149.5901 13.86285712732862
Epoch (UTC): 23 September 2021 20:48:01
Eccentricity: 0.0228125
inclination: 99.1735°
perigee height: 774 km
apogee height: 1108 km
right ascension of ascending node: 303.0356°
argument of perigee: 209.2329°
revolutions per day: 13.86285712
mean anomaly at epoch: 149.5901°
orbit number at epoch: 73286

The dashed part of the orbit path shows where the satellite is in the earth's shadow,  

DLR